STARLINK-31165, 58748

Orbit data source: Space-Track

STARLINK-31165, 58748 is a payload satellite owned by SpaceX/Seattle (US) in LEO that was launched on Sun, 07 Jan 2024 UTC via an FALCON 9 launch vehicle from the Air Force Eastern Test Range (AFETR). Payload-class satellites include a variety of spacecraft equipped with specific instruments for various scientific and technological missions. These include communications satellites like Starlink; space stations such as the ISS; scientific satellites like the Hubble; Earth observation satellites from companies like Planet Labs, Umbra, and HawkEye 360; GPS; miniature CubeSats for education and research; and military/defense satellites.

Loading next visibility...
Identifier
58748, 2024-005W
Orbit
LEO
Country
Flag of USUS
Related business
Manufacturer
SpaceX/Seattle
Mission
Operational Commercial Communications
Bus & Motor
STARLINK V2M, Unknown motor
Mass
730 kg wet, ~700 kg dry
Launch date (UTC)
2024-01-07 (2 years ago)
Launch vehicle
FALCON 9
Launch site
Air Force Eastern Test Range (AFETR)
Object type
Payload
Rocket body
Debris
Shape & HBR
Box + 2 Pan, 17.7 m
Radar Cross Section
33.884 m², Large (>1 m²)

Expand to show TLE details & history
Last TLE update: 3 days ago

TLE from 3 days ago
0 STARLINK-31165
1 58748U 24005W   26170.24399513  .00004741  00000-0  18154-3 0  9993
2 58748  43.0045   6.3595 0000621 217.2467 142.8342 15.27604453135972
Epoch: 2026-06-19T05:51Z
TLE epoch observation values (Epoch: 2026-06-19T05:51:21.179Z)
Latitude
0.00001°
Longitude
11.04551°
Altitude
483.091 km
Speed
7.625 km/s
True Right ascension
00h 25m 26s
True Declination
0° 00' 00"
Sunlit
Object was in daylight at epoch
Visualization orbit readout
Latitude
Unknown
Longitude
Unknown
Altitude
Unknown
Speed
Unknown
Apparent Right ascension
Unknown
Apparent Declination
Unknown
Sunlit
N/A
Visualization observer readout
Local Sidereal Time
21:25:10
Azimuth
Unknown
Elevation
Unknown
Doppler factor
Unknown
Orbital elements
Apogee altitude
485.347 km
Perigee altitude
484.494 km
Semi-major axis
6,863.057 km
Eccentricity
0.00006
Inclination
43.0045°
RAAN
6.3595°
Arg. of periapsis
217.2467°
True anomaly
142.8385°
Mean anomaly
142.8342°
Eccentric anomaly
142.83635°
Mean motion
3.81739 °/min
Orbital period
94.31 mins
BSTAR
0.00018154
Loading maneuver chart data...
Computing Atmospheric mass density...
Loading historical data...
Loading historical data...
Loading historical data...
Loading historical data...
Loading historical data...
Loading historical data...
Loading historical data...

Documentation

Showing up to 5 results
|